Location: Mohawk View
(42.7837°N, 73.7885°W)
Time: 13:00:44
(UTC+00:00)

Cosmos 1606 - Pass Details

Date: 17 June 2021
Orbit: 501 x 527 km, 82.5° (Epoch: 26 July)

Event Time Altitude Azimuth Distance (km) Brightness Sun altitude
Rises 06:28:16 0° 358° (N) 2,655 7.5 -20.5°
Reaches altitude 10° 06:30:30 10° 5° (N) 1,758 6.4 -20.3°
Maximum altitude 06:34:11 43° 78° (ENE) 730 3.6 -20.1°
Enters shadow 06:35:46 28° 132° (SE) 998 3.9 -20.0°
